sat.trackr.live / text

‹ back to catalog

STARLINK-5455

NORAD 55668 · 2023-021AS

PAYLOAD ACTIVE UNKNOWN

§ Identity

Operator
Country
US
Launch date
2023-02-17
Launch site
AFWTR
Launch vehicle
Mass (kg)
RCS (m²)

Purposes: comms

External: N2YO · Heavens-Above · Gunter

§ Orbital elements

Epoch: 2026-05-24T22:24:20.124000Z

Period
96.11 min
Inclination
69.9996°
Eccentricity
0.0002860
Mean motion
14.98330567 rev/d
Perigee alt
570.1 km
Apogee alt
574.0 km
Semi-major
6,950.2 km
B*
2.0869e-5
RAAN
332.2772°
Arg perigee
265.4819°
Mean anomaly
94.6013°
Rev number
18,069

§ Raw data

STARLINK-54551 55668U 23021AS  26144.93356625  .00000156  00000+0  20869-4 0  99942 55668  69.9996 332.2772 0002860 265.4819  94.6013 14.98330567180690

JSON: /api/v1/satellites/55668 · /tle

For live sub-satellite position, see the globe view (requires WebGL).

§ Visibility from observer

Set your observer location to see the next 7 days of passes ≥ 10°. The values pass through the URL so the page stays shareable.

No JS? Fill the form by hand. The geolocation button needs JavaScript.